EW5206 Weather Reports


time (UTC)temp
C
wind
direction
speed
KPH
gust
KPH
rain 1hr
cm
rain 24hr
cm
rain mn
cm
humidity
%
barometer
mb
20260502194519 15 0.0 0.0 0.00 0.00 0.00 36 1012.3
20260502193019 15 0.0 0.0 0.00 0.00 0.00 35 1012.3
20260502191520 15 0.0 0.0 0.00 0.00 0.00 36 1012.3
20260502190016 15 0.0 0.0 0.00 0.00 0.00 34 1012.3
20260502184516 15 0.0 0.0 0.00 0.00 0.00 34 1012.4
20260502183017 15 0.0 0.0 0.00 0.00 0.00 34 1012.3
20260502181514 15 0.0 0.0 0.00 0.00 0.00 36 1012.4
20260502163005 15 0.0 0.0 0.00 0.00 0.00 39 1013.5
20260502161503 15 0.0 0.0 0.00 0.00 0.00 40 1013.6
20260502151552 11 0.0 0.0 0.00 0.00 0.00 48 1013.9
20260502123045 7 0.0 0.0 0.00 0.00 0.00 60 1013.7
20260502121542 6 0.0 0.0 0.00 0.00 0.00 59 1013.9
20260502114534 6 0.0 0.0 0.00 0.00 0.00 61 1013.7
20260502113034 6 0.0 0.0 0.00 0.00 0.00 63 1013.5
20260502111538 6 0.0 0.0 0.00 0.00 0.00 64 1013.3
20260502110035 6 0.0 0.0 0.00 0.00 0.00 62 1013.3
20260502104531 6 0.0 0.0 0.00 0.00 0.00 60 1013.1
20260502103034 6 0.0 0.0 0.00 0.00 0.00 60 1013.4
20260502101529 6 0.0 0.0 0.00 0.00 0.00 57 1013.4
20260502091522 7 0.0 0.0 0.00 0.00 0.00 61 1013.7
20260502071508 8 0.0 0.0 0.00 0.00 0.00 69 1013.3
20260502070015 8 0.0 0.0 0.00 0.00 0.00 69 1013.2
20260502064505 9 0.0 0.0 0.00 0.00 0.00 70 1013.4
20260502063005 9 0.0 0.0 0.00 0.00 0.00 69 1013.4
20260502061601 9 0.0 0.0 0.00 0.00 0.00 69 1013.5
20260502060059 9 0.0 0.0 0.00 0.00 0.00 67 1013.5
20260502054603 10 0.0 0.0 0.00 0.00 0.00 66 1013.6
20260502053057 10 0.0 0.0 0.00 0.00 0.00 65 1013.4
20260502051554 10 0.0 0.0 0.00 0.00 0.00 65 1013.3
20260502050056 10 0.0 0.0 0.00 0.00 0.00 64 1013.3
20260502044550 10 0.0 0.0 0.00 0.00 0.00 64 1013.5
20260502043050 11 0.0 0.0 0.00 0.00 0.00 64 1013.6
20260502041547 11 0.0 0.0 0.00 0.00 0.00 64 1013.4
20260502040043 11 0.0 0.0 0.00 0.00 0.00 63 1013.4
20260502034543 11 0.0 0.0 0.00 0.00 0.00 64 1013.4
20260502033046 11 0.0 0.0 0.00 0.00 0.00 64 1013.4
20260502031542 12 0.0 0.0 0.00 0.00 0.00 62 1013.2
20260502030042 12 0.0 0.0 0.00 0.00 0.00 62 1013.2
20260502024541 12 0.0 0.0 0.00 0.00 0.00 61 1013.0
20260502023048 13 0.0 0.0 0.00 0.00 0.00 59 1013.0
20260502021541 13 0.0 0.0 0.00 0.00 0.00 57 1012.8
20260502020039 13 0.0 0.0 0.00 0.00 0.00 55 1012.3
20260502014544 14 0.0 0.0 0.00 0.00 0.00 52 1012.1
20260502013045 14 0.0 0.0 0.00 0.00 0.00 49 1012.0
20260502011539 15 0.0 0.0 0.00 0.00 0.00 47 1011.7
20260502010045 15 0.0 0.0 0.00 0.00 0.00 44 1011.2
20260502004553 15 0.0 0.0 0.00 0.00 0.00 44 1010.8
20260502003037 16 0.0 0.0 0.00 0.00 0.00 42 1010.6
20260502001537 16 0.0 0.0 0.00 0.00 0.00 41 1010.3
20260502000049 16 0.0 0.0 0.00 0.00 0.00 42 1010.0
20260501234535 16 0.0 0.0 0.00 0.00 0.00 46 1009.7
20260501233039 17 0.0 0.0 0.00 0.00 0.00 46 1009.8
20260501231539 17 0.0 0.0 0.00 0.00 0.00 50 1009.8
20260501230038 17 0.0 0.0 0.00 0.00 0.00 48 1009.8
20260501224538 17 0.0 0.0 0.00 0.00 0.00 47 1009.7
20260501223033 17 0.0 0.0 0.00 0.00 0.00 45 1009.6
20260501221533 18 0.0 0.0 0.00 0.00 0.00 43 1009.7
20260501220031 18 0.0 0.0 0.00 0.00 0.00 42 1009.7
20260501214530 18 0.0 0.0 0.00 0.00 0.00 42 1009.9
20260501213030 18 0.0 0.0 0.00 0.00 0.00 42 1009.8
20260501211529 18 0.0 0.0 0.00 0.00 0.00 44 1010.0
20260501210027 18 0.0 0.0 0.00 0.00 0.00 40 1010.0
20260501204526 18 0.0 0.0 0.00 0.00 0.00 39 1010.2
20260501203026 18 0.0 0.0 0.00 0.00 0.00 39 1010.3
20260501201524 18 0.0 0.0 0.00 0.00 0.00 38 1010.4
20260501200022 18 0.0 0.0 0.00 0.00 0.00 38 1010.8